Regional Weather Roundup
Issued by NWS Wakefield, VA

Home | Current Version | Previous Version | Graphics & Text | Print | Product List | Glossary On
Versions: 1 2 3 4 5 6 7 8 9 10 11 12 13 14 15 16 17 18 19 20 21 22 23 24 25 26 27 28 29 30 31 32 33 34 35 36 37 38 39 40 41 42 43 44 45 46 47 48 49 50
000
ASUS41 KAKQ 300214
RWRAKQ

REGIONAL WEATHER ROUNDUP
NATIONAL WEATHER SERVICE WAKEFIELD VA
1000 PM EDT SUN MAR 29 2015

Note: "fair" indicates few or no clouds below 12,000 feet with no
significant weather and/or obstructions to visibility. * = Denotes
station may not report precipitation (e.g., rain,snow,etc.),
thunder or fog.

VAZ042-051-052>054-056-300300-
NORTHERN VIRGINIA

CITY           SKY/WX    TMP DP  RH WIND       PRES   REMARKS
WASH NATIONAL  MOCLDY    43  15  32 S12       30.18F
DULLES         MOCLDY    40   8  26 S9        30.13F
FORT BELVOIR   PTCLDY    35  15  44 SE7       30.17F
QUANTICO       PTCLDY    44  20  38 S15       30.19F
FREDERICKSBRG* MOCLDY    41  13  31 S9        30.17F
STAFFORD*      MOCLDY    37   6  27 SE5       30.21F
WARRENTON      PTCLDY    42  18  37 S8        30.13F
CULPEPER*      CLOUDY    43   9  24 S6        30.14F
MANASSAS*      CLEAR     37  16  41 S8        30.15
LEESBURG*      MOCLDY    43  14  31 S8        30.14F
WINCHESTER     CLOUDY    43  -4  14 S10       30.08F
FRONT ROYAL*   FAIR      43   9  24 S7        30.07F
LURAY*         FAIR      43  18  36 SW7       30.09F
$$

VAZ048-049-060>072-079>083-300300-
CENTRAL AND SOUTH CENTRAL VIRGINIA

CITY           SKY/WX    TMP DP  RH WIND       PRES   REMARKS
RICHMOND       MOCLDY    36  18  48 S7        30.22F
CHESTERFIELD*  NOT AVBL
PETERSBURG*    PTCLDY    33  21  62 CALM      30.23F
HANOVER        PTCLDY    34  17  50 SE5       30.21F
TAPPAHANNOCK*  PTCLDY    37   4  25 SE3       30.22F
QUINTON*       FAIR      36  18  48 CALM      30.22F
CHARLOTTSVILLE CLOUDY    44   9  23 S13       30.14F
GORDONSVILLE*  FAIR      39  14  35 SW3       30.15F
ORANGE*        CLOUDY    41  10  28 S3        30.16F
LOUISA*        MOCLDY    41  10  28 SE5       30.15F
BUMPASS*       FAIR      39   8  28 MISG      30.17F
FARMVILLE*     CLOUDY    43  17  35 S7        30.18F
CREWE*         FAIR      40  13  34 MISG      30.20F
FORT PICKETT*  FAIR      38  14  37 S7        30.21F
CHASE CITY*    FAIR      42  22  44 S3        30.21F
CLARKSVILLE*   FAIR      41  18  38 S6        30.21F
SOUTH HILL*    MOCLDY    36  19  48 S5        30.28F
LAWRENCEVILLE* FAIR      35  19  51 S6        30.23S
EMPORIA*       PTCLDY    34  23  64 SE3       30.26F
$$

VAZ088>098-300300-
SOUTHEAST VIRGINIA

CITY           SKY/WX    TMP DP  RH WIND       PRES   REMARKS
NORFOLK        CLEAR     37  23  56 S10       30.26F
VIRGINIA BEACH PTCLDY    39  23  52 SE10      30.26F
NORFOLK NAVAL  PTCLDY    42  21  43 SE9       30.27F
WEST POINT*    CLEAR     35  19  53 CALM      30.25F
SALUDA*        FAIR      34  23  63 S7        30.24S
NEWPORT NEWS   CLEAR     38  19  46 S3        30.25
LANGLEY AFB    CLEAR     38  23  55 S5        30.24F
FORT EUSTIS    CLEAR     40  22  48 SW6       30.23F
WILLIAMSBURG*  CLEAR     43  21  42 S6        30.25S
HR EXEC AP*    FAIR      34  21  60 S5        30.27F
FRANKLIN*      CLEAR     37  20  50 SE5       30.26F
WAKEFIELD      CLEAR     33  20  58 CALM      30.25F
$$

VAZ020-022-025-037-045-300300-
WEST CENTRAL AND SOUTHWEST VIRGINIA

CITY           SKY/WX    TMP DP  RH WIND       PRES   REMARKS
STAUNTON*      CLOUDY    43   7  23 S7        30.11F
WAYNESBORO*    FAIR      42   5  22 S9G17     30.10F
HOT SPRINGS VA MOCLDY    34   4  28 S14G23    30.02F WCI  24
LYNCHBURG      MOCLDY    42  12  29 S9        30.18S
DANVILLE       CLOUDY    46  12  25 S6        30.21F
SOUTH BOSTON*  FAIR      41  11  29 CALM      30.21F
MARTINSVILLE   PTCLDY    43  12  27 S3        30.21F
ROANOKE        CLEAR     45   9  23 S8        30.16S
BLACKSBURG     PTCLDY    40  12  32 S8        30.15F
DUBLIN*        PTCLDY    43  15  32 S7        30.14S
MARION*        CLEAR     43  11  27 CALM      30.12F
HILLSVILLE*    PTCLDY    39  13  34 S12G20    30.13S
RICHLANDS*     FAIR      44 -37   2 S7        30.05F
WISE*          MOCLDY    46   9  21 SW22      30.06R
ABINGDON*      CLEAR     40  19  43 CALM      30.09F
$$

MDZ021>025-VAZ099-100-300300-
SOUTHERN MARYLAND AND THE DELMARVA PENINSULA

CITY           SKY/WX    TMP DP  RH WIND       PRES   REMARKS
PATUXENT RIVER CLEAR     36  17  46 S7        30.23R
BAY BRIDGE APT   N/A     37  19  48 S7        30.20F
LEONARDTOWN    CLEAR     34  18  51 SE5       30.24S
DOVER          CLEAR     33  15  49 S5        30.21F
GEORGETOWN     CLEAR     33  15  47 SW3       30.23F
EASTON         CLEAR     36  19  49 S5        30.25S
CAMBRIDGE      CLEAR     36  25  64 S5        30.23S
SALISBURY      CLEAR     30  17  58 S5        30.23F
OCEAN CITY     CLEAR     32  26  78 CALM      30.24F
WALLOPS ISLAND CLEAR     32  16  51 SW6       30.26S
ACCOMACK*      CLEAR     32  18  55 SE7       30.24F
$$

NCZ012>017-030>032-300300-
NORTH CENTRAL AND EASTERN NORTH CAROLINA

CITY           SKY/WX    TMP DP  RH WIND       PRES   REMARKS
ROANOKE RAPIDS FAIR      37  19  48 S6        30.25F
RALEIGH        MOCLDY    44  15  31 S7        30.25S
ELIZABETH CITY CLEAR     35  24  64 S6        30.29F
AHOSKIE*       PTCLDY    33  23  67 S3        30.27F
EDENTON*       CLEAR     38  25  58 S6        30.29F
CURRITUCK*     CLEAR     35  23  61 CALM      30.31F
KILL DEVIL HLS CLEAR     33  24  68 SE3       30.30F
MANTEO         CLEAR     35  25  67 SE6       30.32S
CAPE HATTERAS  CLEAR     36  26  67 SE6       30.33S
TARBORO*       FAIR      41  25  53 S6        30.28F
GOLDSBORO      CLEAR     42  21  44 S5        30.26F
WASHINGTON     CLEAR     35  24  63 S3        30.30F
GREENVILLE     CLEAR     41  23  48 S5        30.29F
NEW BERN       CLEAR     34  26  72 CALM      30.33F
WILMINGTON     CLEAR     41  30  65 S3        30.33S
$$

VAZ048-300300-
ELSEWHERE

CITY           SKY/WX    TMP DP  RH WIND       PRES   REMARKS
HARRISBURG PA  MOCLDY    40  12  32 S12       30.11F
BALTIMORE      MOCLDY    36  13  38 SE6       30.16F
ANNAPOLIS      PTCLDY    38  26  62 S9        30.19F
ANDREWS AFB    PTCLDY    34  12  40 S10       30.16F
PHILADELPHIA   FAIR      39  13  34 S9        30.19S
HENDERSON NC   MOCLDY    41  12  30 S7        30.23S
GREENSBORO     MOCLDY    44  13  28 S8        30.21S
ROCKY MOUNT    CLEAR     39  23  52 S5        30.27F
$$

VAZ100-300300-
MARINE

STATION/POSITION TIME  TEMP    WIND        PRES    WAVE   SWELL
                       AIR SEA DIR/SP/G            HT/PER HT/PER
                 (UTC) (F)     (DEG/KT/KT) (MB)    (FT/S) (FT/S)
BRANDYWINE LGT   0100   39 40  230/ 12/ 13 1023.6
CAPE MAY NJ      0100   40 43  220/ 10/ 11 1023.3R
LEWES DE         0100   36 41  210/  3/  5 1023.7R
15NM E FENWICK I 0150   37 39              1023.9S   3/10
OCEAN-CITY-INLET 0100   38 40  220/ 10/ 12 1024.1R
WACHAPREAGUE VA  0100   34 45  230/  3/  4 1025.1S
THOMAS POINT MD  0200                        N/A
COVE POINT MD    0100   39     190/  7/  8 1023.1F
SOLOMONS ISLAND  0100      43                N/A
BISHOPS HEAD MD  0106   39 42  170/ 11/ 12 1023.3
PINEY POINT MD   0100          180/ 14/ 15   N/A
CAMBRIDGE MD     0100   37 43  160/  4/  7 1023.4S
LEWISETTA VA     0100   37 44              1023.6F
RAPPAHANNOCK LGT 0100          160/ 10/ 11 1025.2F
STINGRAY PT      0200   41 44  180/ 14/ 16   N/A     1/ 2
YORK RVR RNG VA  0100   42     170/ 12/ 14 1024.1F
YORKTOWN VA      0100   39 45  170/  7/  7 1024.6F
DOMINION TERM VA 0100   44     150/  7/  8 1025.3S
KIPTOPEKE VA     0100      48  150/  5/  6   N/A
CHES BAY BRIDGE  0100   40 43  140/ 11/ 13 1025.3R
CAPE HENRY VA    0100   37     170/  8/  9 1024.5R
CHESAPEAKE LGHT  0100   38     150/  8/  9 1026.4S
WILLOUBY STN VA  0100   43     170/  7/  8 1025.7F
S CRANEY ISL VA  0100          160/  7/  8 1025.4R
CAPE HENRY BUOY  0128      40                N/A     2/10
1ST LANDING BUOY 0200   39     160/ 14/ 17 1024.2F   1/ 3
OFFSHORE WE BUOY 0111      40                N/A     3/ 9   3/ 9
64NM E OF VA BCH 0150   40 54  330/  4/  4 1025.8F   5/ 9   5/ 9
DUCK PIER NC     0100   38 43  140/  8/  9 1025.5F
44056 DUCK FRF   0111      43                N/A     3/ 6   2/11
OREGON INLET NC  0100   35 45  140/  4/  4 1027.0F
HATTERAS NC      0100   41 50  120/  4/  7 1027.2F
CAPE LOOKOUT NC  0200   46     230/  1/  2 1026.7F
$$



USA.gov is the U.S. government's official web portal to all federal, state and local government web resources and services.